Time,TemperatureF,DewpointF,PressureIn,WindDirection,WindDirectionDegrees,WindSpeedMPH,WindSpeedGustMPH,Humidity,HourlyPrecipIn,Conditions,Clouds,dailyrainin,SoftwareType,DateUTC
2013-02-22 00:00:00,37.5,32.5,30.26,SE,137,0.0,0.0,82,0.00,,,0.00,VWS V14.01,2013-02-22 08:00:00,
2013-02-22 00:05:00,37.6,32.6,30.26,SE,136,0.0,0.0,82,0.00,,,0.00,VWS V14.01,2013-02-22 08:05:00,
2013-02-22 00:10:00,37.6,32.6,30.27,SE,136,0.0,0.0,82,0.00,,,0.00,VWS V14.01,2013-02-22 08:10:00,
2013-02-22 00:15:00,37.5,32.2,30.27,SE,136,0.0,0.0,81,0.00,,,0.00,VWS V14.01,2013-02-22 08:15:00,
2013-02-22 00:20:00,37.3,32.3,30.27,SE,136,0.0,0.0,82,0.00,,,0.00,VWS V14.01,2013-02-22 08:20:00,
2013-02-22 00:25:00,37.1,32.1,30.27,SE,136,0.0,0.0,82,0.00,,,0.00,VWS V14.01,2013-02-22 08:25:00,
2013-02-22 00:30:00,36.9,32.2,30.27,SE,136,0.0,0.0,83,0.00,,,0.00,VWS V14.01,2013-02-22 08:30:00,
2013-02-22 00:35:00,36.8,32.1,30.27,SE,136,0.0,0.0,83,0.00,,,0.00,VWS V14.01,2013-02-22 08:35:00,
2013-02-22 00:40:00,36.8,32.1,30.27,SE,137,0.0,0.0,83,0.00,,,0.00,VWS V14.01,2013-02-22 08:40:00,
2013-02-22 00:45:00,36.8,32.1,30.27,SE,137,0.0,0.0,83,0.00,,,0.00,VWS V14.01,2013-02-22 08:45:00,
2013-02-22 00:50:00,36.7,32.0,30.27,SE,136,0.0,0.0,83,0.00,,,0.00,VWS V14.01,2013-02-22 08:50:00,
2013-02-22 00:55:00,36.8,32.1,30.27,SE,139,0.0,0.0,83,0.00,,,0.00,VWS V14.01,2013-02-22 08:55:00,
2013-02-22 01:00:00,36.8,32.1,30.27,SE,139,0.0,0.0,83,0.00,,,0.00,VWS V14.01,2013-02-22 09:00:00,
2013-02-22 01:05:00,36.7,32.0,30.27,SE,139,0.0,0.0,83,0.00,,,0.00,VWS V14.01,2013-02-22 09:05:00,
2013-02-22 01:10:00,36.7,32.3,30.27,SE,138,0.0,0.0,84,0.00,,,0.00,VWS V14.01,2013-02-22 09:10:00,
2013-02-22 01:15:00,36.7,32.0,30.27,SE,139,0.0,0.0,83,0.00,,,0.00,VWS V14.01,2013-02-22 09:15:00,
2013-02-22 01:20:00,36.7,32.0,30.27,SE,143,0.0,0.0,83,0.00,,,0.00,VWS V14.01,2013-02-22 09:20:00,
2013-02-22 01:25:00,36.5,31.8,30.27,SE,143,0.0,0.0,83,0.00,,,0.00,VWS V14.01,2013-02-22 09:25:00,
2013-02-22 01:30:00,36.4,32.0,30.27,SE,143,0.0,0.0,84,0.00,,,0.00,VWS V14.01,2013-02-22 09:30:00,
2013-02-22 01:35:00,36.5,32.1,30.27,SE,143,0.0,0.0,84,0.00,,,0.00,VWS V14.01,2013-02-22 09:35:00,
2013-02-22 01:40:00,36.3,31.6,30.27,SE,143,0.0,0.0,83,0.00,,,0.00,VWS V14.01,2013-02-22 09:40:00,
2013-02-22 01:45:00,36.4,32.3,30.28,SE,144,0.0,0.0,85,0.00,,,0.00,VWS V14.01,2013-02-22 09:45:00,
2013-02-22 01:50:00,36.6,31.9,30.28,SE,144,0.0,0.0,83,0.00,,,0.00,VWS V14.01,2013-02-22 09:50:00,
2013-02-22 01:55:00,36.4,31.7,30.28,SE,143,0.0,0.0,83,0.00,,,0.00,VWS V14.01,2013-02-22 09:55:00,
2013-02-22 02:00:00,36.3,32.2,30.28,SE,143,0.0,0.0,85,0.00,,,0.00,VWS V14.01,2013-02-22 10:00:00,
2013-02-22 02:05:00,36.2,32.1,30.28,SE,143,0.0,0.0,85,0.00,,,0.00,VWS V14.01,2013-02-22 10:05:00,
2013-02-22 02:10:00,36.1,32.0,30.28,SE,144,0.0,1.0,85,0.00,,,0.00,VWS V14.01,2013-02-22 10:10:00,
2013-02-22 02:15:00,35.9,31.8,30.28,SE,143,0.0,1.0,85,0.00,,,0.00,VWS V14.01,2013-02-22 10:15:00,
2013-02-22 02:20:00,35.7,31.6,30.28,SE,143,0.0,1.0,85,0.00,,,0.00,VWS V14.01,2013-02-22 10:20:00,
2013-02-22 02:25:00,35.5,31.5,30.27,SE,143,0.0,1.0,85,0.00,,,0.00,VWS V14.01,2013-02-22 10:25:00,
2013-02-22 02:30:00,35.4,31.6,30.27,SE,143,0.0,0.0,86,0.00,,,0.00,VWS V14.01,2013-02-22 10:30:00,
2013-02-22 02:35:00,35.3,31.5,30.27,SE,143,0.0,0.0,86,0.00,,,0.00,VWS V14.01,2013-02-22 10:35:00,
2013-02-22 02:40:00,35.2,31.4,30.27,SE,144,0.0,0.0,86,0.00,,,0.00,VWS V14.01,2013-02-22 10:40:00,
2013-02-22 02:45:00,34.9,31.1,30.27,SE,144,0.0,0.0,86,0.00,,,0.00,VWS V14.01,2013-02-22 10:45:00,
2013-02-22 02:50:00,34.9,31.4,30.27,SE,144,0.0,0.0,87,0.00,,,0.00,VWS V14.01,2013-02-22 10:50:00,
2013-02-22 02:55:00,34.7,31.2,30.27,SE,143,0.0,0.0,87,0.00,,,0.00,VWS V14.01,2013-02-22 10:55:00,
2013-02-22 03:00:00,34.4,31.2,30.27,SE,144,0.0,0.0,88,0.00,,,0.00,VWS V14.01,2013-02-22 11:00:00,
2013-02-22 03:05:00,34.7,31.8,30.27,SE,143,0.0,0.0,89,0.00,,,0.00,VWS V14.01,2013-02-22 11:05:00,
2013-02-22 03:10:00,34.7,31.8,30.27,SE,143,0.0,0.0,89,0.00,,,0.00,VWS V14.01,2013-02-22 11:10:00,
2013-02-22 03:15:00,34.7,31.8,30.27,SE,143,0.0,0.0,89,0.00,,,0.00,VWS V14.01,2013-02-22 11:15:00,
2013-02-22 03:20:00,34.8,31.9,30.27,SE,143,0.0,0.0,89,0.00,,,0.00,VWS V14.01,2013-02-22 11:20:00,
2013-02-22 03:25:00,34.9,31.7,30.27,SE,144,0.0,0.0,88,0.00,,,0.00,VWS V14.01,2013-02-22 11:25:00,
2013-02-22 03:30:00,34.9,31.7,30.27,SE,144,0.0,0.0,88,0.00,,,0.00,VWS V14.01,2013-02-22 11:30:00,
2013-02-22 03:35:00,34.8,31.3,30.27,SE,143,0.0,0.0,87,0.00,,,0.00,VWS V14.01,2013-02-22 11:35:00,
2013-02-22 03:40:00,34.8,31.6,30.27,SE,141,0.0,0.0,88,0.00,,,0.00,VWS V14.01,2013-02-22 11:40:00,
2013-02-22 03:45:00,34.8,31.6,30.27,SE,141,0.0,0.0,88,0.00,,,0.00,VWS V14.01,2013-02-22 11:45:00,
2013-02-22 03:50:00,34.8,31.6,30.27,SE,141,0.0,0.0,88,0.00,,,0.00,VWS V14.01,2013-02-22 11:50:00,
2013-02-22 03:55:00,34.7,31.5,30.27,SE,141,0.0,0.0,88,0.00,,,0.00,VWS V14.01,2013-02-22 11:55:00,
2013-02-22 04:00:00,34.9,32.0,30.27,SE,143,0.0,0.0,89,0.00,,,0.00,VWS V14.01,2013-02-22 12:00:00,
2013-02-22 04:05:00,35.1,31.9,30.27,SE,142,0.0,0.0,88,0.00,,,0.00,VWS V14.01,2013-02-22 12:05:00,
2013-02-22 04:10:00,35.1,31.6,30.28,SE,142,0.0,0.0,87,0.00,,,0.00,VWS V14.01,2013-02-22 12:10:00,
2013-02-22 04:15:00,34.8,31.3,30.28,SE,142,0.0,0.0,87,0.00,,,0.00,VWS V14.01,2013-02-22 12:15:00,
2013-02-22 04:20:00,34.6,31.4,30.28,SE,143,0.0,0.0,88,0.00,,,0.00,VWS V14.01,2013-02-22 12:20:00,
2013-02-22 04:25:00,34.5,31.6,30.28,SE,143,0.0,0.0,89,0.00,,,0.00,VWS V14.01,2013-02-22 12:25:00,
2013-02-22 04:30:00,34.4,31.5,30.28,SE,143,0.0,0.0,89,0.00,,,0.00,VWS V14.01,2013-02-22 12:30:00,
2013-02-22 04:35:00,34.3,31.1,30.28,SE,142,0.0,0.0,88,0.00,,,0.00,VWS V14.01,2013-02-22 12:35:00,
2013-02-22 04:40:00,34.3,31.4,30.28,SE,142,0.0,0.0,89,0.00,,,0.00,VWS V14.01,2013-02-22 12:40:00,
2013-02-22 04:45:00,34.4,31.5,30.28,SE,142,0.0,0.0,89,0.00,,,0.00,VWS V14.01,2013-02-22 12:45:00,
2013-02-22 04:49:00,34.4,31.5,30.28,SE,143,0.0,0.0,89,0.00,,,0.00,VWS V14.01,2013-02-22 12:49:00,
2013-02-22 04:54:00,34.2,31.3,30.28,SE,143,0.0,0.0,89,0.00,,,0.00,VWS V14.01,2013-02-22 12:54:00,
2013-02-22 05:00:00,34.1,31.2,30.28,SE,143,0.0,0.0,89,0.00,,,0.00,VWS V14.01,2013-02-22 13:00:00,
2013-02-22 05:05:00,33.9,31.0,30.29,SE,142,0.0,0.0,89,0.00,,,0.00,VWS V14.01,2013-02-22 13:05:00,
2013-02-22 05:09:00,33.9,31.3,30.29,SE,143,0.0,0.0,90,0.00,,,0.00,VWS V14.01,2013-02-22 13:09:00,
2013-02-22 05:14:00,34.0,31.4,30.29,SE,142,0.0,1.0,90,0.00,,,0.00,VWS V14.01,2013-02-22 13:14:00,
2013-02-22 05:19:00,34.0,31.4,30.29,SE,143,0.0,1.0,90,0.00,,,0.00,VWS V14.01,2013-02-22 13:19:00,
2013-02-22 05:24:00,33.8,31.2,30.30,SE,143,0.0,1.0,90,0.00,,,0.00,VWS V14.01,2013-02-22 13:24:00,
2013-02-22 05:29:00,33.7,31.4,30.29,SE,143,0.0,0.0,91,0.00,,,0.00,VWS V14.01,2013-02-22 13:29:00,
2013-02-22 05:34:00,33.9,31.6,30.30,SE,143,0.0,0.0,91,0.00,,,0.00,VWS V14.01,2013-02-22 13:34:00,
2013-02-22 05:39:00,34.0,31.6,30.30,SE,143,0.0,0.0,91,0.00,,,0.00,VWS V14.01,2013-02-22 13:39:00,
2013-02-22 05:44:00,34.1,31.8,30.30,SE,143,0.0,0.0,91,0.00,,,0.00,VWS V14.01,2013-02-22 13:44:00,
2013-02-22 05:49:00,34.0,31.4,30.30,SE,142,0.0,0.0,90,0.00,,,0.00,VWS V14.01,2013-02-22 13:49:00,
2013-02-22 05:54:00,33.8,31.2,30.30,SE,142,0.0,0.0,90,0.00,,,0.00,VWS V14.01,2013-02-22 13:54:00,
2013-02-22 05:59:00,33.9,31.6,30.30,SE,142,0.0,0.0,91,0.00,,,0.00,VWS V14.01,2013-02-22 13:59:00,
2013-02-22 06:04:00,34.0,31.6,30.30,SE,143,0.0,0.0,91,0.00,,,0.00,VWS V14.01,2013-02-22 14:04:00,
2013-02-22 06:09:00,34.1,31.8,30.30,SSE,148,0.0,0.0,91,0.00,,,0.00,VWS V14.01,2013-02-22 14:09:00,
2013-02-22 06:14:00,34.1,31.5,30.30,SSE,148,0.0,0.0,90,0.00,,,0.00,VWS V14.01,2013-02-22 14:14:00,
2013-02-22 06:19:00,33.9,31.3,30.31,SSE,148,0.0,0.0,90,0.00,,,0.00,VWS V14.01,2013-02-22 14:19:00,
2013-02-22 06:24:00,33.8,31.5,30.30,SSE,148,0.0,0.0,91,0.00,,,0.00,VWS V14.01,2013-02-22 14:24:00,
2013-02-22 06:29:00,33.9,31.6,30.31,SSE,148,0.0,0.0,91,0.00,,,0.00,VWS V14.01,2013-02-22 14:29:00,
2013-02-22 06:34:00,33.7,31.1,30.31,SSE,148,0.0,0.0,90,0.00,,,0.00,VWS V14.01,2013-02-22 14:34:00,
2013-02-22 06:39:00,33.4,30.8,30.31,SSE,148,0.0,0.0,90,0.00,,,0.00,VWS V14.01,2013-02-22 14:39:00,
2013-02-22 06:44:00,33.5,31.2,30.31,SSE,148,0.0,0.0,91,0.00,,,0.00,VWS V14.01,2013-02-22 14:44:00,
2013-02-22 06:49:00,33.4,31.1,30.31,SSE,148,0.0,0.0,91,0.00,,,0.00,VWS V14.01,2013-02-22 14:49:00,
2013-02-22 06:54:00,33.3,31.0,30.31,SE,134,0.0,1.0,91,0.00,,,0.00,VWS V14.01,2013-02-22 14:54:00,
2013-02-22 06:59:00,33.5,31.4,30.31,SE,134,0.0,0.0,92,0.00,,,0.00,VWS V14.01,2013-02-22 14:59:00,
2013-02-22 07:04:00,33.5,31.4,30.32,SE,134,0.0,0.0,92,0.00,,,0.00,VWS V14.01,2013-02-22 15:04:00,
2013-02-22 07:09:00,33.5,31.4,30.32,SE,134,0.0,0.0,92,0.00,,,0.00,VWS V14.01,2013-02-22 15:09:00,
2013-02-22 07:14:00,33.7,31.6,30.32,SE,134,0.0,0.0,92,0.00,,,0.00,VWS V14.01,2013-02-22 15:14:00,
2013-02-22 07:19:00,33.9,31.8,30.32,SE,134,0.0,0.0,92,0.00,,,0.00,VWS V14.01,2013-02-22 15:19:00,
2013-02-22 07:24:00,33.9,31.8,30.32,SE,134,0.0,0.0,92,0.00,,,0.00,VWS V14.01,2013-02-22 15:24:00,
2013-02-22 07:29:00,33.9,31.8,30.32,SE,134,0.0,1.0,92,0.00,,,0.00,VWS V14.01,2013-02-22 15:29:00,
2013-02-22 07:34:00,34.0,31.9,30.32,SE,134,0.0,1.0,92,0.00,,,0.00,VWS V14.01,2013-02-22 15:34:00,
2013-02-22 07:39:00,34.2,32.1,30.32,SE,134,0.0,1.0,92,0.00,,,0.00,VWS V14.01,2013-02-22 15:39:00,
2013-02-22 07:44:00,34.7,32.9,30.32,SSE,147,0.0,1.0,93,0.00,,,0.00,VWS V14.01,2013-02-22 15:44:00,
2013-02-22 07:49:00,35.5,33.7,30.32,SSE,151,0.0,1.0,93,0.00,,,0.00,VWS V14.01,2013-02-22 15:49:00,
2013-02-22 07:54:00,36.0,33.6,30.32,SSE,150,0.0,1.0,91,0.00,,,0.00,VWS V14.01,2013-02-22 15:54:00,
2013-02-22 07:59:00,36.7,34.3,30.32,SSE,151,0.0,0.0,91,0.00,,,0.00,VWS V14.01,2013-02-22 15:59:00,
2013-02-22 08:04:00,37.5,34.8,30.32,SSE,151,0.0,1.0,90,0.00,,,0.00,VWS V14.01,2013-02-22 16:04:00,
2013-02-22 08:09:00,38.2,35.2,30.32,SSE,150,0.0,1.0,89,0.00,,,0.00,VWS V14.01,2013-02-22 16:09:00,
2013-02-22 08:14:00,39.1,35.8,30.32,SSE,150,0.0,1.0,88,0.00,,,0.00,VWS V14.01,2013-02-22 16:14:00,
2013-02-22 08:19:00,40.6,36.8,30.33,East,96,0.0,1.0,86,0.00,,,0.00,VWS V14.01,2013-02-22 16:19:00,
2013-02-22 08:24:00,42.4,37.6,30.33,SSE,150,0.0,1.0,83,0.00,,,0.00,VWS V14.01,2013-02-22 16:24:00,
2013-02-22 08:29:00,44.1,38.0,30.33,ESE,118,1.0,1.0,79,0.00,,,0.00,VWS V14.01,2013-02-22 16:29:00,
2013-02-22 08:34:00,45.6,38.5,30.32,ESE,103,0.0,1.0,76,0.00,,,0.00,VWS V14.01,2013-02-22 16:34:00,
2013-02-22 08:39:00,46.9,38.7,30.32,South,188,0.0,1.0,73,0.00,,,0.00,VWS V14.01,2013-02-22 16:39:00,
2013-02-22 08:44:00,47.9,39.0,30.32,SW,222,0.0,1.0,71,0.00,,,0.00,VWS V14.01,2013-02-22 16:44:00,
2013-02-22 08:49:00,48.7,39.0,30.33,East,82,0.0,1.0,69,0.00,,,0.00,VWS V14.01,2013-02-22 16:49:00,
2013-02-22 08:54:00,49.8,39.7,30.33,East,82,0.0,1.0,68,0.00,,,0.00,VWS V14.01,2013-02-22 16:54:00,
2013-02-22 08:59:00,51.0,40.1,30.33,East,82,0.0,0.0,66,0.00,,,0.00,VWS V14.01,2013-02-22 16:59:00,
2013-02-22 09:04:00,51.6,39.8,30.33,WNW,287,0.0,1.0,64,0.00,,,0.00,VWS V14.01,2013-02-22 17:04:00,
2013-02-22 09:09:00,52.0,39.8,30.33,NW,319,0.0,1.0,63,0.00,,,0.00,VWS V14.01,2013-02-22 17:09:00,
2013-02-22 09:14:00,52.3,39.7,30.33,SSW,205,0.0,1.0,62,0.00,,,0.00,VWS V14.01,2013-02-22 17:14:00,
2013-02-22 09:19:00,52.4,40.2,30.33,NW,315,0.0,2.0,63,0.00,,,0.00,VWS V14.01,2013-02-22 17:19:00,
2013-02-22 09:24:00,52.7,40.1,30.33,ENE,71,1.0,3.0,62,0.00,,,0.00,VWS V14.01,2013-02-22 17:24:00,
2013-02-22 09:29:00,52.9,41.5,30.34,NNW,336,0.0,1.0,65,0.00,,,0.00,VWS V14.01,2013-02-22 17:29:00,
2013-02-22 09:34:00,53.1,41.7,30.34,NW,321,0.0,2.0,65,0.00,,,0.00,VWS V14.01,2013-02-22 17:34:00,
2013-02-22 09:39:00,53.1,41.7,30.34,North,359,1.0,2.0,65,0.00,,,0.00,VWS V14.01,2013-02-22 17:39:00,
2013-02-22 09:44:00,53.4,41.9,30.34,NW,311,0.0,2.0,65,0.00,,,0.00,VWS V14.01,2013-02-22 17:44:00,
2013-02-22 09:49:00,53.9,41.6,30.34,WNW,285,1.0,2.0,63,0.00,,,0.00,VWS V14.01,2013-02-22 17:49:00,
2013-02-22 09:54:00,54.0,41.3,30.34,WNW,295,0.0,2.0,62,0.00,,,0.00,VWS V14.01,2013-02-22 17:54:00,
2013-02-22 09:59:00,54.6,41.4,30.34,West,273,0.0,1.0,61,0.00,,,0.00,VWS V14.01,2013-02-22 17:59:00,
2013-02-22 10:04:00,55.1,41.0,30.34,WNW,282,0.0,2.0,59,0.00,,,0.00,VWS V14.01,2013-02-22 18:04:00,
2013-02-22 10:09:00,55.2,40.2,30.34,NW,311,0.0,2.0,57,0.00,,,0.00,VWS V14.01,2013-02-22 18:09:00,
2013-02-22 10:14:00,55.7,40.7,30.34,NW,323,0.0,2.0,57,0.00,,,0.00,VWS V14.01,2013-02-22 18:14:00,
2013-02-22 10:19:00,56.4,40.9,30.34,WSW,246,1.0,2.0,56,0.00,,,0.00,VWS V14.01,2013-02-22 18:19:00,
2013-02-22 10:24:00,56.8,40.8,30.34,SW,232,2.0,2.0,55,0.00,,,0.00,VWS V14.01,2013-02-22 18:24:00,
2013-02-22 10:29:00,57.1,40.6,30.34,WNW,288,0.0,3.0,54,0.00,,,0.00,VWS V14.01,2013-02-22 18:29:00,
2013-02-22 10:34:00,57.2,40.2,30.34,NNW,343,1.0,3.0,53,0.00,,,0.00,VWS V14.01,2013-02-22 18:34:00,
2013-02-22 10:39:00,57.2,39.8,30.34,NNE,33,0.0,3.0,52,0.00,,,0.00,VWS V14.01,2013-02-22 18:39:00,
2013-02-22 10:44:00,57.4,40.4,30.34,NW,321,0.0,3.0,53,0.00,,,0.00,VWS V14.01,2013-02-22 18:44:00,
2013-02-22 10:49:00,57.8,40.3,30.34,WSW,240,1.0,3.0,52,0.00,,,0.00,VWS V14.01,2013-02-22 18:49:00,
2013-02-22 10:54:00,58.1,40.1,30.33,West,279,0.0,3.0,51,0.00,,,0.00,VWS V14.01,2013-02-22 18:54:00,
2013-02-22 10:59:00,58.4,40.4,30.34,NNW,347,1.0,1.0,51,0.00,,,0.00,VWS V14.01,2013-02-22 18:59:00,
2013-02-22 11:04:00,58.6,40.0,30.34,WNW,285,1.0,2.0,50,0.00,,,0.00,VWS V14.01,2013-02-22 19:04:00,
2013-02-22 11:09:00,58.7,40.1,30.34,WNW,302,0.0,2.0,50,0.00,,,0.00,VWS V14.01,2013-02-22 19:09:00,
2013-02-22 11:14:00,58.6,39.5,30.33,ENE,75,1.0,3.0,49,0.00,,,0.00,VWS V14.01,2013-02-22 19:14:00,
2013-02-22 11:19:00,58.7,39.1,30.33,NNW,333,1.0,3.0,48,0.00,,,0.00,VWS V14.01,2013-02-22 19:19:00,
2013-02-22 11:24:00,59.3,39.6,30.33,South,177,1.0,3.0,48,0.00,,,0.00,VWS V14.01,2013-02-22 19:24:00,
2013-02-22 11:29:00,59.7,39.5,30.33,NNW,339,1.0,1.0,47,0.00,,,0.00,VWS V14.01,2013-02-22 19:29:00,
2013-02-22 11:34:00,60.2,39.4,30.33,WNW,283,1.0,2.0,46,0.00,,,0.00,VWS V14.01,2013-02-22 19:34:00,
2013-02-22 11:39:00,60.7,38.7,30.33,North,349,1.0,2.0,44,0.00,,,0.00,VWS V14.01,2013-02-22 19:39:00,
2013-02-22 11:44:00,61.1,39.0,30.33,WSW,250,0.0,2.0,44,0.00,,,0.00,VWS V14.01,2013-02-22 19:44:00,
2013-02-22 11:49:00,61.1,37.9,30.33,NW,326,0.0,3.0,42,0.00,,,0.00,VWS V14.01,2013-02-22 19:49:00,
2013-02-22 11:54:00,60.9,38.9,30.32,NNE,23,0.0,3.0,44,0.00,,,0.00,VWS V14.01,2013-02-22 19:54:00,
2013-02-22 11:59:00,61.1,39.0,30.33,WNW,283,0.0,1.0,44,0.00,,,0.00,VWS V14.01,2013-02-22 19:59:00,
2013-02-22 12:04:00,61.2,38.5,30.33,WSW,253,1.0,3.0,43,0.00,,,0.00,VWS V14.01,2013-02-22 20:04:00,
2013-02-22 12:09:00,61.1,37.9,30.33,NE,37,1.0,3.0,42,0.00,,,0.00,VWS V14.01,2013-02-22 20:09:00,
2013-02-22 12:15:00,61.5,38.2,30.32,WNW,298,1.0,3.0,42,0.00,,,0.00,VWS V14.01,2013-02-22 20:15:00,
2013-02-22 12:20:00,62.0,38.0,30.32,WSW,243,4.0,4.0,41,0.00,,,0.00,VWS V14.01,2013-02-22 20:20:00,
2013-02-22 12:25:00,62.0,38.0,30.32,WSW,245,1.0,4.0,41,0.00,,,0.00,VWS V14.01,2013-02-22 20:25:00,
2013-02-22 12:30:00,62.2,37.6,30.32,NW,305,1.0,4.0,40,0.00,,,0.00,VWS V14.01,2013-02-22 20:30:00,
2013-02-22 12:35:00,62.3,37.0,30.32,WNW,300,3.0,4.0,39,0.00,,,0.00,VWS V14.01,2013-02-22 20:35:00,
2013-02-22 12:40:00,62.4,38.4,30.32,SW,231,1.0,4.0,41,0.00,,,0.00,VWS V14.01,2013-02-22 20:40:00,
2013-02-22 12:45:00,62.6,38.0,30.31,WSW,248,3.0,4.0,40,0.00,,,0.00,VWS V14.01,2013-02-22 20:45:00,
2013-02-22 12:50:00,62.7,38.7,30.31,NW,314,1.0,5.0,41,0.00,,,0.00,VWS V14.01,2013-02-22 20:50:00,
2013-02-22 12:55:00,62.9,37.6,30.31,NW,320,2.0,5.0,39,0.00,,,0.00,VWS V14.01,2013-02-22 20:55:00,
2013-02-22 13:00:00,62.8,39.4,30.31,NNW,328,2.0,3.0,42,0.00,,,0.00,VWS V14.01,2013-02-22 21:00:00,
2013-02-22 13:05:00,62.9,40.1,30.30,West,260,3.0,6.0,43,0.00,,,0.00,VWS V14.01,2013-02-22 21:05:00,
2013-02-22 13:10:00,63.1,40.3,30.30,NW,325,1.0,7.0,43,0.00,,,0.00,VWS V14.01,2013-02-22 21:10:00,
2013-02-22 13:15:00,63.2,39.8,30.30,NNE,20,5.0,7.0,42,0.00,,,0.00,VWS V14.01,2013-02-22 21:15:00,
2013-02-22 13:20:00,63.0,39.6,30.30,NW,307,2.0,7.0,42,0.00,,,0.00,VWS V14.01,2013-02-22 21:20:00,
2013-02-22 13:25:00,62.9,39.5,30.30,North,358,2.0,7.0,42,0.00,,,0.00,VWS V14.01,2013-02-22 21:25:00,
2013-02-22 13:30:00,63.3,38.0,30.29,SSE,162,1.0,2.0,39,0.00,,,0.00,VWS V14.01,2013-02-22 21:30:00,
2013-02-22 13:35:00,63.4,36.7,30.29,SE,131,1.0,8.0,37,0.00,,,0.00,VWS V14.01,2013-02-22 21:35:00,
2013-02-22 13:40:00,63.6,36.9,30.29,WNW,301,2.0,8.0,37,0.00,,,0.00,VWS V14.01,2013-02-22 21:40:00,
2013-02-22 13:45:00,63.9,37.1,30.28,WSW,241,2.0,8.0,37,0.00,,,0.00,VWS V14.01,2013-02-22 21:45:00,
2013-02-22 13:50:00,64.3,36.1,30.28,WNW,283,3.0,8.0,35,0.00,,,0.00,VWS V14.01,2013-02-22 21:50:00,
2013-02-22 13:55:00,64.1,35.2,30.28,North,5,2.0,8.0,34,0.00,,,0.00,VWS V14.01,2013-02-22 21:55:00,
2013-02-22 14:00:00,64.2,36.0,30.28,WSW,255,2.0,3.0,35,0.00,,,0.00,VWS V14.01,2013-02-22 22:00:00,
2013-02-22 14:05:00,64.0,36.5,30.28,WSW,256,0.0,4.0,36,0.00,,,0.00,VWS V14.01,2013-02-22 22:05:00,
2013-02-22 14:10:00,64.3,36.8,30.28,NW,320,1.0,4.0,36,0.00,,,0.00,VWS V14.01,2013-02-22 22:10:00,
2013-02-22 14:15:00,64.4,36.2,30.27,WSW,248,0.0,4.0,35,0.00,,,0.00,VWS V14.01,2013-02-22 22:15:00,
2013-02-22 14:20:00,64.6,36.3,30.27,NNW,333,1.0,4.0,35,0.00,,,0.00,VWS V14.01,2013-02-22 22:20:00,
2013-02-22 14:25:00,64.6,37.1,30.27,NNE,26,2.0,4.0,36,0.00,,,0.00,VWS V14.01,2013-02-22 22:25:00,
2013-02-22 14:30:00,64.9,38.0,30.26,NW,322,1.0,3.0,37,0.00,,,0.00,VWS V14.01,2013-02-22 22:30:00,
2013-02-22 14:35:00,65.1,38.2,30.26,NW,318,5.0,5.0,37,0.00,,,0.00,VWS V14.01,2013-02-22 22:35:00,
2013-02-22 14:40:00,65.2,38.3,30.26,WNW,298,2.0,5.0,37,0.00,,,0.00,VWS V14.01,2013-02-22 22:40:00,
2013-02-22 14:45:00,65.1,37.5,30.26,West,260,3.0,5.0,36,0.00,,,0.00,VWS V14.01,2013-02-22 22:45:00,
2013-02-22 14:50:00,65.2,38.3,30.26,West,273,1.0,5.0,37,0.00,,,0.00,VWS V14.01,2013-02-22 22:50:00,
2013-02-22 14:55:00,65.2,38.3,30.26,WSW,256,4.0,5.0,37,0.00,,,0.00,VWS V14.01,2013-02-22 22:55:00,
2013-02-22 15:00:00,65.4,39.2,30.26,South,187,3.0,4.0,38,0.00,,,0.00,VWS V14.01,2013-02-22 23:00:00,
2013-02-22 15:05:00,65.5,39.9,30.27,WSW,240,8.0,8.0,39,0.00,,,0.00,VWS V14.01,2013-02-22 23:05:00,
2013-02-22 15:10:00,65.2,40.9,30.27,WSW,249,2.0,8.0,41,0.00,,,0.00,VWS V14.01,2013-02-22 23:10:00,
2013-02-22 15:15:00,65.2,39.6,30.26,SW,235,0.0,8.0,39,0.00,,,0.00,VWS V14.01,2013-02-22 23:15:00,
2013-02-22 15:20:00,65.3,40.4,30.26,NW,317,2.0,8.0,40,0.00,,,0.00,VWS V14.01,2013-02-22 23:20:00,
2013-02-22 15:25:00,65.0,40.8,30.26,WNW,284,1.0,9.0,41,0.00,,,0.00,VWS V14.01,2013-02-22 23:25:00,
2013-02-22 15:30:00,65.1,40.2,30.26,SSW,204,2.0,8.0,40,0.00,,,0.00,VWS V14.01,2013-02-22 23:30:00,
2013-02-22 15:35:00,65.1,39.5,30.26,West,273,1.0,8.0,39,0.00,,,0.00,VWS V14.01,2013-02-22 23:35:00,
2013-02-22 15:40:00,65.0,38.8,30.26,SW,219,5.0,8.0,38,0.00,,,0.00,VWS V14.01,2013-02-22 23:40:00,
2013-02-22 15:45:00,64.8,37.2,30.26,WSW,240,5.0,8.0,36,0.00,,,0.00,VWS V14.01,2013-02-22 23:45:00,
2013-02-22 15:50:00,64.5,37.7,30.26,SSE,165,2.0,8.0,37,0.00,,,0.00,VWS V14.01,2013-02-22 23:50:00,
2013-02-22 15:55:00,64.4,36.2,30.26,ESE,118,4.0,8.0,35,0.00,,,0.00,VWS V14.01,2013-02-22 23:55:00,
2013-02-22 16:00:00,64.1,35.9,30.26,SSW,201,1.0,6.0,35,0.00,,,0.00,VWS V14.01,2013-02-23 00:00:00,
2013-02-22 16:05:00,64.0,36.5,30.27,WNW,283,3.0,7.0,36,0.00,,,0.00,VWS V14.01,2013-02-23 00:05:00,
2013-02-22 16:10:00,63.9,37.1,30.27,West,266,1.0,7.0,37,0.00,,,0.00,VWS V14.01,2013-02-23 00:10:00,
2013-02-22 16:15:00,63.5,36.8,30.27,West,269,3.0,7.0,37,0.00,,,0.00,VWS V14.01,2013-02-23 00:15:00,
2013-02-22 16:20:00,63.1,36.4,30.27,NNW,336,1.0,7.0,37,0.00,,,0.00,VWS V14.01,2013-02-23 00:20:00,
2013-02-22 16:25:00,62.8,36.2,30.27,WSW,245,0.0,7.0,37,0.00,,,0.00,VWS V14.01,2013-02-23 00:25:00,
2013-02-22 16:30:00,62.3,35.7,30.27,WSW,248,5.0,7.0,37,0.00,,,0.00,VWS V14.01,2013-02-23 00:30:00,
2013-02-22 16:35:00,61.7,35.9,30.27,WSW,242,2.0,7.0,38,0.00,,,0.00,VWS V14.01,2013-02-23 00:35:00,
2013-02-22 16:40:00,61.4,35.6,30.26,NW,324,3.0,7.0,38,0.00,,,0.00,VWS V14.01,2013-02-23 00:40:00,
2013-02-22 16:45:00,60.9,35.8,30.26,WNW,295,2.0,7.0,39,0.00,,,0.00,VWS V14.01,2013-02-23 00:45:00,
2013-02-22 16:50:00,60.6,35.5,30.26,SW,219,2.0,7.0,39,0.00,,,0.00,VWS V14.01,2013-02-23 00:50:00,
2013-02-22 16:55:00,60.4,35.3,30.26,SE,135,1.0,7.0,39,0.00,,,0.00,VWS V14.01,2013-02-23 00:55:00,
2013-02-22 17:00:00,60.4,35.3,30.27,SSW,203,1.0,5.0,39,0.00,,,0.00,VWS V14.01,2013-02-23 01:00:00,
2013-02-22 17:05:00,60.0,36.2,30.27,SW,231,0.0,6.0,41,0.00,,,0.00,VWS V14.01,2013-02-23 01:05:00,
2013-02-22 17:10:00,59.5,36.4,30.26,SSW,207,1.0,6.0,42,0.00,,,0.00,VWS V14.01,2013-02-23 01:10:00,
2013-02-22 17:15:00,58.9,36.5,30.26,SE,134,1.0,6.0,43,0.00,,,0.00,VWS V14.01,2013-02-23 01:15:00,
2013-02-22 17:20:00,58.3,36.5,30.26,WSW,246,1.0,6.0,44,0.00,,,0.00,VWS V14.01,2013-02-23 01:20:00,
2013-02-22 17:25:00,57.8,36.6,30.26,West,264,0.0,6.0,45,0.00,,,0.00,VWS V14.01,2013-02-23 01:25:00,
2013-02-22 17:30:00,57.4,36.8,30.26,SSE,160,0.0,1.0,46,0.00,,,0.00,VWS V14.01,2013-02-23 01:30:00,
2013-02-22 17:35:00,57.0,37.0,30.26,West,274,1.0,3.0,47,0.00,,,0.00,VWS V14.01,2013-02-23 01:35:00,
2013-02-22 17:40:00,56.6,36.6,30.25,West,264,0.0,3.0,47,0.00,,,0.00,VWS V14.01,2013-02-23 01:40:00,
2013-02-22 17:45:00,56.2,36.8,30.26,WNW,290,0.0,3.0,48,0.00,,,0.00,VWS V14.01,2013-02-23 01:45:00,
2013-02-22 17:50:00,55.8,36.4,30.26,West,260,0.0,3.0,48,0.00,,,0.00,VWS V14.01,2013-02-23 01:50:00,
2013-02-22 17:55:00,55.5,36.2,30.26,SW,231,0.0,3.0,48,0.00,,,0.00,VWS V14.01,2013-02-23 01:55:00,
2013-02-22 18:00:00,55.2,36.4,30.26,WNW,287,1.0,1.0,49,0.00,,,0.00,VWS V14.01,2013-02-23 02:00:00,
2013-02-22 18:05:00,54.9,36.1,30.26,West,269,0.0,4.0,49,0.00,,,0.00,VWS V14.01,2013-02-23 02:05:00,
2013-02-22 18:10:00,54.6,36.3,30.26,West,281,0.0,4.0,50,0.00,,,0.00,VWS V14.01,2013-02-23 02:10:00,
2013-02-22 18:15:00,54.2,36.5,30.26,West,281,0.0,4.0,51,0.00,,,0.00,VWS V14.01,2013-02-23 02:15:00,
2013-02-22 18:20:00,53.8,36.6,30.26,WSW,256,0.0,4.0,52,0.00,,,0.00,VWS V14.01,2013-02-23 02:20:00,
2013-02-22 18:25:00,53.6,36.4,30.26,West,263,0.0,4.0,52,0.00,,,0.00,VWS V14.01,2013-02-23 02:25:00,
2013-02-22 18:30:00,53.3,36.1,30.25,NW,311,0.0,2.0,52,0.00,,,0.00,VWS V14.01,2013-02-23 02:30:00,
2013-02-22 18:35:00,53.0,36.3,30.25,SSE,163,0.0,2.0,53,0.00,,,0.00,VWS V14.01,2013-02-23 02:35:00,
2013-02-22 18:40:00,52.6,36.5,30.26,SSE,163,0.0,2.0,54,0.00,,,0.00,VWS V14.01,2013-02-23 02:40:00,
2013-02-22 18:45:00,52.0,36.3,30.25,SSE,164,0.0,2.0,55,0.00,,,0.00,VWS V14.01,2013-02-23 02:45:00,
2013-02-22 18:50:00,51.4,36.2,30.25,SSE,164,0.0,2.0,56,0.00,,,0.00,VWS V14.01,2013-02-23 02:50:00,
2013-02-22 18:55:00,51.1,36.4,30.26,SSE,162,0.0,2.0,57,0.00,,,0.00,VWS V14.01,2013-02-23 02:55:00,
2013-02-22 19:00:00,50.8,36.1,30.26,South,189,0.0,0.0,57,0.00,,,0.00,VWS V14.01,2013-02-23 03:00:00,
2013-02-22 19:05:00,51.0,36.8,30.27,South,188,0.0,0.0,58,0.00,,,0.00,VWS V14.01,2013-02-23 03:05:00,
2013-02-22 19:10:00,50.9,36.7,30.27,WSW,257,0.0,3.0,58,0.00,,,0.00,VWS V14.01,2013-02-23 03:10:00,
2013-02-22 19:15:00,51.3,36.6,30.27,WSW,250,0.0,3.0,57,0.00,,,0.00,VWS V14.01,2013-02-23 03:15:00,
2013-02-22 19:20:00,51.5,36.8,30.28,West,271,0.0,3.0,57,0.00,,,0.00,VWS V14.01,2013-02-23 03:20:00,
2013-02-22 19:25:00,51.6,37.3,30.28,West,281,0.0,3.0,58,0.00,,,0.00,VWS V14.01,2013-02-23 03:25:00,
2013-02-22 19:30:00,51.2,37.4,30.28,WSW,243,0.0,1.0,59,0.00,,,0.00,VWS V14.01,2013-02-23 03:30:00,
2013-02-22 19:35:00,51.0,37.6,30.29,WNW,295,0.0,1.0,60,0.00,,,0.00,VWS V14.01,2013-02-23 03:35:00,
2013-02-22 19:40:00,51.0,38.0,30.29,WSW,246,0.0,1.0,61,0.00,,,0.00,VWS V14.01,2013-02-23 03:40:00,
2013-02-22 19:45:00,50.9,38.4,30.28,SSE,159,0.0,1.0,62,0.00,,,0.00,VWS V14.01,2013-02-23 03:45:00,
2013-02-22 19:50:00,50.8,38.7,30.28,West,280,0.0,1.0,63,0.00,,,0.00,VWS V14.01,2013-02-23 03:50:00,
2013-02-22 19:55:00,50.8,39.1,30.29,SW,225,1.0,2.0,64,0.00,,,0.00,VWS V14.01,2013-02-23 03:55:00,
2013-02-22 20:00:00,50.8,39.5,30.28,SW,221,0.0,1.0,65,0.00,,,0.00,VWS V14.01,2013-02-23 04:00:00,
2013-02-22 20:05:00,50.8,39.5,30.28,West,259,2.0,2.0,65,0.00,,,0.00,VWS V14.01,2013-02-23 04:05:00,
2013-02-22 20:10:00,50.9,39.6,30.28,SW,228,0.0,2.0,65,0.00,,,0.00,VWS V14.01,2013-02-23 04:10:00,
2013-02-22 20:15:00,50.9,39.6,30.26,South,173,2.0,3.0,65,0.00,,,0.00,VWS V14.01,2013-02-23 04:15:00,
2013-02-22 20:20:00,51.2,39.8,30.26,WSW,246,5.0,6.0,65,0.00,,,0.00,VWS V14.01,2013-02-23 04:20:00,
2013-02-22 20:25:00,51.8,40.4,30.26,SSE,158,0.0,8.0,65,0.00,,,0.00,VWS V14.01,2013-02-23 04:25:00,
2013-02-22 20:30:00,52.2,40.4,30.26,NW,308,2.0,2.0,64,0.00,,,0.00,VWS V14.01,2013-02-23 04:30:00,
2013-02-22 20:35:00,52.5,40.7,30.26,SSW,197,0.0,2.0,64,0.00,,,0.00,VWS V14.01,2013-02-23 04:35:00,
2013-02-22 20:40:00,52.7,40.5,30.26,WNW,290,1.0,3.0,63,0.00,,,0.00,VWS V14.01,2013-02-23 04:40:00,
2013-02-22 20:45:00,52.6,40.8,30.26,NW,308,0.0,3.0,64,0.00,,,0.00,VWS V14.01,2013-02-23 04:45:00,
2013-02-22 20:50:00,52.4,40.6,30.25,NNE,27,1.0,3.0,64,0.00,,,0.00,VWS V14.01,2013-02-23 04:50:00,
2013-02-22 20:55:00,52.3,40.5,30.26,WNW,295,0.0,4.0,64,0.00,,,0.00,VWS V14.01,2013-02-23 04:55:00,
2013-02-22 21:00:00,52.4,40.6,30.27,NW,308,1.0,2.0,64,0.00,,,0.00,VWS V14.01,2013-02-23 05:00:00,
2013-02-22 21:05:00,52.4,41.0,30.27,WNW,294,0.0,2.0,65,0.00,,,0.00,VWS V14.01,2013-02-23 05:05:00,
2013-02-22 21:10:00,52.0,41.0,30.27,WSW,242,0.0,2.0,66,0.00,,,0.00,VWS V14.01,2013-02-23 05:10:00,
2013-02-22 21:15:00,52.0,41.4,30.28,WNW,290,0.0,4.0,67,0.00,,,0.00,VWS V14.01,2013-02-23 05:15:00,
2013-02-22 21:20:00,51.8,41.2,30.29,NW,314,0.0,4.0,67,0.00,,,0.00,VWS V14.01,2013-02-23 05:20:00,
2013-02-22 21:25:00,51.8,41.6,30.30,NNW,328,1.0,4.0,68,0.00,,,0.00,VWS V14.01,2013-02-23 05:25:00,
2013-02-22 21:30:00,51.9,41.7,30.30,WSW,255,1.0,2.0,68,0.00,,,0.00,VWS V14.01,2013-02-23 05:30:00,
2013-02-22 21:35:00,51.9,41.7,30.30,WSW,244,3.0,5.0,68,0.00,,,0.00,VWS V14.01,2013-02-23 05:35:00,
2013-02-22 21:40:00,51.8,42.0,30.30,NW,316,1.0,5.0,69,0.00,,,0.00,VWS V14.01,2013-02-23 05:40:00,
2013-02-22 21:45:00,51.6,42.2,30.31,NW,316,3.0,5.0,70,0.00,,,0.00,VWS V14.01,2013-02-23 05:45:00,
2013-02-22 21:50:00,51.5,42.0,30.30,SW,228,1.0,5.0,70,0.00,,,0.00,VWS V14.01,2013-02-23 05:50:00,
2013-02-22 21:55:00,51.5,42.4,30.30,West,277,0.0,6.0,71,0.00,,,0.00,VWS V14.01,2013-02-23 05:55:00,
2013-02-22 22:00:00,51.5,42.0,30.30,WNW,293,2.0,5.0,70,0.00,,,0.00,VWS V14.01,2013-02-23 06:00:00,
2013-02-22 22:05:00,51.5,42.4,30.30,SW,233,0.0,5.0,71,0.00,,,0.00,VWS V14.01,2013-02-23 06:05:00,
2013-02-22 22:10:00,51.5,42.4,30.30,NW,326,1.0,5.0,71,0.00,,,0.00,VWS V14.01,2013-02-23 06:10:00,
2013-02-22 22:15:00,51.5,42.4,30.29,SW,217,0.0,5.0,71,0.00,,,0.00,VWS V14.01,2013-02-23 06:15:00,
2013-02-22 22:20:00,51.6,42.5,30.30,NNW,341,1.0,5.0,71,0.00,,,0.00,VWS V14.01,2013-02-23 06:20:00,
2013-02-22 22:25:00,51.7,42.2,30.30,NNW,330,0.0,5.0,70,0.00,,,0.00,VWS V14.01,2013-02-23 06:25:00,
2013-02-22 22:30:00,51.6,42.5,30.31,WSW,248,1.0,1.0,71,0.00,,,0.00,VWS V14.01,2013-02-23 06:30:00,
2013-02-22 22:35:00,51.7,42.2,30.31,SSE,153,1.0,5.0,70,0.00,,,0.00,VWS V14.01,2013-02-23 06:35:00,
2013-02-22 22:40:00,51.9,42.1,30.31,South,172,2.0,5.0,69,0.00,,,0.00,VWS V14.01,2013-02-23 06:40:00,
2013-02-22 22:45:00,52.0,42.2,30.31,NW,305,0.0,6.0,69,0.00,,,0.00,VWS V14.01,2013-02-23 06:45:00,
2013-02-22 22:50:00,51.9,42.1,30.31,West,273,0.0,6.0,69,0.00,,,0.00,VWS V14.01,2013-02-23 06:50:00,
2013-02-22 22:55:00,51.9,42.1,30.31,WSW,246,3.0,6.0,69,0.00,,,0.00,VWS V14.01,2013-02-23 06:55:00,
2013-02-22 23:00:00,52.0,42.2,30.31,WSW,248,1.0,4.0,69,0.00,,,0.00,VWS V14.01,2013-02-23 07:00:00,
2013-02-22 23:05:00,51.8,42.0,30.32,West,263,1.0,4.0,69,0.00,,,0.00,VWS V14.01,2013-02-23 07:05:00,
2013-02-22 23:10:00,51.7,42.2,30.31,SW,232,2.0,4.0,70,0.00,,,0.00,VWS V14.01,2013-02-23 07:10:00,
2013-02-22 23:15:00,51.6,42.2,30.31,NW,310,0.0,4.0,70,0.00,,,0.00,VWS V14.01,2013-02-23 07:15:00,
2013-02-22 23:20:00,51.5,42.4,30.31,West,271,2.0,5.0,71,0.00,,,0.00,VWS V14.01,2013-02-23 07:20:00,
2013-02-22 23:25:00,51.3,42.2,30.31,WNW,301,1.0,5.0,71,0.00,,,0.00,VWS V14.01,2013-02-23 07:25:00,
2013-02-22 23:30:00,51.3,42.2,30.31,WSW,249,0.0,5.0,71,0.00,,,0.00,VWS V14.01,2013-02-23 07:30:00,
2013-02-22 23:35:00,51.3,42.2,30.31,NNW,328,0.0,10.0,71,0.00,,,0.00,VWS V14.01,2013-02-23 07:35:00,
2013-02-22 23:40:00,51.2,41.8,30.30,NNW,333,0.0,10.0,70,0.00,,,0.00,VWS V14.01,2013-02-23 07:40:00,
2013-02-22 23:45:00,51.2,41.8,30.31,WNW,290,2.0,10.0,70,0.00,,,0.00,VWS V14.01,2013-02-23 07:45:00,
2013-02-22 23:50:00,51.1,41.7,30.31,NW,311,2.0,10.0,70,0.00,,,0.00,VWS V14.01,2013-02-23 07:50:00,
2013-02-22 23:55:00,51.0,41.6,30.30,WNW,301,1.0,10.0,70,0.00,,,0.00,VWS V14.01,2013-02-23 07:55:00,